Theta_e
305 305 306 306 306 306 306 306 306 307 307 308 308 309 309 309 309 310 312 314 320 319 312 309 308 308 308 308 308 309 312 320 326
306 306 307 307 307 307 307 307 306 306 306 307 307 307 308 308 309 308 309 313 320 309 308 309 309 309 308 308 308 308 308 308 309
306 306 306 306 306 307 307 307 307 307 307 308 308 308 309 310 310 309 309 313 319 323 323 324 324 320 317 312 309 309 309 309 309
306 306 307 307 307 307 307 307 307 307 308 308 308 309 309 310 309 309 321 325 325 325 323 326 324 323 323 323 323 323 320 319 318
307 306 307 307 307 307 307 307 307 307 307 308 308 309 309 310 310 322 327 326 323 321 322 323 322 323 324 324 324 325 324 324 323
307 307 307 307 307 307 307 307 307 307 307 307 307 308 309 310 311 320 322 321 321 320 318 319 320 320 323 324 325 325 324 324 323
307 307 307 307 307 307 307 307 306 306 306 306 307 307 308 309 310 312 317 318 320 320 319 320 320 320 321 322 322 322 321 321 319
307 307 307 307 307 306 306 306 306 306 306 306 306 307 308 309 310 311 312 313 315 318 319 318 319 320 319 320 320 319 318 319 320
307 307 307 307 307 306 306 306 306 306 306 306 306 307 307 308 310 311 311 311 310 311 315 317 316 319 318 317 316 315 314 315 316
307 307 307 307 307 306 306 305 305 305 306 306 307 307 308 310 311 310 310 310 309 308 308 309 310 312 315 316 315 315 313 311 310
307 307 307 306 306 306 306 306 306 305 306 306 307 308 310 312 311 310 310 308 306 303 302 302 303 304 311 314 312 312 307 305 305
306 306 306 306 306 306 306 306 306 306 306 306 307 308 310 311 310 309 309 307 303 301 300 300 301 302 303 308 311 308 304 304 303
306 306 306 306 306 306 306 306 306 306 306 306 306 306 307 308 307 307 305 304 302 302 302 302 301 301 300 301 303 302 302 301 301
305 305 306 306 306 306 306 306 306 306 306 306 306 307 308 307 305 306 305 304 304 303 303 303 303 302 302 301 300 300 300 300 299
305 305 305 305 305 305 305 305 305 306 306 305 306 307 308 310 308 305 306 305 304 304 303 303 303 303 303 302 301 301 300 299 299
305 305 305 305 305 305 305 305 305 305 305 305 305 305 307 309 308 304 306 305 304 304 303 303 303 303 304 303 302 302 302 301 299
304 304 304 304 304 304 304 304 304 304 304 305 305 304 305 308 304 305 306 305 304 303 302 303 303 304 304 303 303 303 302 302 301
304 304 304 304 304 304 304 304 303 303 303 303 303 303 303 303 304 303 304 305 304 303 302 302 302 303 303 303 303 302 301 301 302
303 303 303 303 303 303 303 303 303 302 302 302 302 302 301 301 302 302 302 302 302 301 302 301 301 301 301 302 302 302 302 301 301
303 303 303 303 303 302 302 302 302 302 301 301 301 300 300 300 299 299 301 301 301 301 302 302 302 301 299 298 296 297 300 301 301
Wind_Speed
11 12 12 12 12 12 11 10 9 8 8 9 9 8 7 7 7 7 7 7 9 10 8 6 5 6 7 7 7 7 7 7 7
11 11 12 12 12 11 11 10 9 8 9 9 9 9 8 7 7 7 6 9 11 12 11 11 11 10 9 7 7 7 7 7 8
10 10 10 10 10 9 8 8 7 8 8 8 8 7 7 7 8 9 10 13 14 15 15 14 14 14 13 12 10 10 9 9 9
9 9 9 9 9 8 8 7 6 7 7 7 7 7 7 8 8 11 14 14 12 10 9 12 11 12 13 13 14 13 14 13 12
7 7 7 7 7 7 7 6 6 7 7 7 7 6 7 8 9 12 13 9 6 5 5 7 9 10 11 11 10 11 11 10 10
7 7 7 7 8 7 7 7 6 7 7 6 6 5 6 6 7 8 6 6 6 7 7 6 5 7 7 7 6 5 5 6 8
7 7 7 7 7 8 7 7 7 7 6 6 5 5 5 5 5 2 1 4 6 6 10 10 8 3 5 7 6 7 8 8 10
6 7 7 7 7 7 7 7 7 6 7 6 4 3 4 5 5 5 3 2 3 11 9 10 10 9 3 6 9 11 14 8 9
6 6 6 6 6 7 7 7 7 6 7 6 5 4 4 5 7 8 7 5 6 8 10 11 9 10 9 10 11 14 10 9 9
5 5 5 6 6 7 7 7 7 7 8 8 7 5 5 6 8 8 8 8 8 10 10 10 10 9 10 10 11 12 12 11 11
4 4 4 5 6 6 7 8 8 7 8 8 7 6 5 5 8 8 8 9 10 11 11 10 10 9 9 10 11 12 14 14 13
3 3 4 4 5 6 7 8 9 8 7 7 6 5 4 5 7 8 8 9 10 11 12 12 11 11 10 11 10 13 14 14 14
3 3 3 3 5 5 6 7 8 7 7 6 6 5 4 4 6 7 7 8 10 11 12 14 13 13 12 12 12 14 14 15 15
3 2 2 2 3 4 4 5 6 7 6 6 5 4 4 4 5 6 7 8 9 11 13 14 13 13 15 14 13 14 15 15 15
3 2 2 1 1 2 4 4 5 7 7 6 5 4 3 3 4 7 6 7 9 10 13 14 13 15 17 16 14 15 15 16 16
4 3 2 1 0 1 3 4 5 5 6 6 6 3 3 3 5 7 5 6 8 10 14 16 16 16 17 16 16 17 17 16 16
5 4 3 3 2 2 3 4 5 6 7 7 5 2 2 2 9 4 5 7 7 12 15 17 17 18 18 18 18 19 19 18 17
6 5 5 4 4 4 4 5 5 6 7 7 5 3 2 12 2 9 6 7 11 13 17 17 17 18 19 19 20 19 20 19 19
7 7 6 5 5 5 5 5 6 6 6 6 6 5 6 4 6 7 9 17 16 20 20 19 20 21 22 23 23 22 21 21 21
8 7 7 6 5 5 6 6 6 7 7 6 6 7 8 8 8 17 20 23 23 23 23 24 24 25 27 27 27 26 23 20 22
Wind_Direction
89 87 86 84 83 80 79 78 80 82 79 76 75 70 63 56 56 54 48 37 30 27 28 21 1 344 337 331 322 308 294 290 295
90 87 84 81 80 78 74 70 66 60 60 63 63 59 65 61 55 54 47 40 35 33 33 29 21 10 1 353 346 343 332 316 299
89 84 80 80 79 77 73 68 62 60 57 57 56 54 58 52 46 48 41 44 48 43 38 32 28 25 25 21 13 5 354 350 339
87 81 79 78 75 72 67 60 52 48 42 44 46 47 51 47 53 64 55 55 57 54 43 45 36 27 27 32 36 29 30 23 13
82 77 71 67 66 62 58 51 37 35 29 27 32 39 40 47 64 75 64 60 26 3 56 39 35 37 35 32 35 36 46 28 14
82 73 69 65 62 59 52 48 36 27 25 17 17 27 29 40 66 94 78 35 6 353 358 5 30 25 31 31 45 51 26 19 16
79 72 67 60 57 53 48 47 36 27 24 22 18 16 19 27 42 86 189 56 25 14 22 33 36 40 11 349 328 320 315 312 330
83 76 67 61 55 50 46 42 34 25 30 28 26 22 20 22 22 24 0 318 31 33 31 24 27 28 346 345 337 314 301 344 340
83 77 73 64 57 50 47 42 35 31 32 32 35 30 25 26 28 32 41 28 8 12 21 22 17 21 16 353 342 319 357 360 350
89 85 74 64 58 51 50 44 39 36 33 33 35 36 37 40 30 31 30 24 12 6 4 1 1 6 14 11 1 2 359 353 346
100 87 72 62 60 53 51 46 43 43 39 38 44 54 57 39 23 21 22 16 14 11 9 5 0 0 9 14 2 356 354 351 345
116 99 79 68 62 54 48 44 40 37 38 37 40 44 41 25 13 14 12 11 15 18 21 17 12 9 3 4 8 354 355 351 347
135 116 92 74 61 54 46 40 36 35 33 30 30 25 21 17 15 16 8 9 17 25 25 22 20 17 11 2 355 351 350 350 348
161 140 114 82 65 54 44 37 33 31 28 23 22 20 18 25 22 6 2 9 16 17 17 10 10 9 5 356 352 348 347 347 346
190 181 167 113 61 34 27 21 19 21 21 22 10 343 338 343 352 349 348 359 3 1 360 358 356 355 354 352 350 347 341 340 339
210 210 211 214 293 352 1 4 3 359 8 9 354 333 310 302 330 322 317 334 342 349 349 350 347 345 345 343 341 340 339 337 335
228 225 230 247 277 310 325 333 336 346 354 356 360 352 309 172 328 325 310 312 323 330 335 338 334 334 335 334 331 329 326 325 327
233 234 241 257 280 293 304 320 333 343 347 353 6 336 298 318 259 311 292 293 304 313 320 323 322 323 324 322 322 322 318 313 314
236 243 248 261 276 292 305 319 329 336 338 338 338 325 307 305 297 288 279 291 291 303 307 312 315 317 316 314 313 311 306 301 299
236 246 254 263 276 291 307 318 323 324 326 326 320 314 313 308 298 301 295 294 297 305 307 309 311 312 312 313 312 309 305 293 286